Weather History for KCAK - November, 2013

Change the Weather History Date:

Thursday, November 14, 2013

  Actual Average Record
Temperature  
Mean Temperature 38 °F 42 °F  
Max Temperature 47 °F 50 °F 73 °F (1909)
Min Temperature 28 °F 35 °F 11 °F (1986)
Degree Days  
Heating Degree Days 27 23  
Month to date heating degree days 314 287  
Since 1 July heating degree days 778 842  
Cooling Degree Days 0 0  
Month to date cooling degree days 0 0  
Year to date cooling degree days 829 652  
Moisture  
Dew Point 20 °F    
Average Humidity 53    
Maximum Humidity 69    
Minimum Humidity 37    
Precipitation  
Precipitation 0.00 in 0.11 in 2.13 in (2011)
Month to date precipitation 1.30 1.50  
Year to date precipitation 36.86 34.98  
Snow  
Snow 0.00 in 0.10 in - ()
Month to date snowfall 3.2 0.9  
Since 1 July snowfall 3.2 1.3  
Since 1 September snowfall 3.2 1.3  
Snow Depth T in    
Sea Level Pressure  
Sea Level Pressure 30.24 in    
Wind  
Wind Speed 15 mph (SSW)    
Max Wind Speed 21 mph    
Max Gust Speed 21 mph    
Visibility 10 miles    
Events      
T = Trace of Precipitation, MM = Missing Value Source: NWS Daily Summary

Daily Weather History Graph

Daily Weather History Graph

Search for Another Location

Airport or City:

Trip Planner

Search our weather history database for the weather conditions in past years. The results will help you decide how hot, cold, wet, or windy it might be!

Date:

Astronomy

Nov. 14, 2013 Rise Set
Actual Time 7:12 AM EST 5:07 PM EST
Civil Twilight 6:42 AM EST 5:37 PM EST
Nautical Twilight 6:09 AM EST 6:10 PM EST
Astronomical Twilight 5:37 AM EST 6:42 PM EST
Moon 3:29 PM EST (11/14) 4:04 AM EST (11/14)
Length of Visible Light 10h 54m
Length of Day
9h 55m
Waxing Gibbous, 91% of the Moon is Illuminated
Nov 14
Waxing Gibbous
Nov 17
Full
Nov 25
Last Quarter
Dec 2
New
Dec 9
First Quarter

Hourly Weather History & Observations

Time (EST) Temp. Windchill Dew Point Humidity Pressure Visibility Wind Dir Wind Speed Gust Speed Precip Events Conditions
12:51 AM 29.5 °F 18.4 °F 17.4 °F 61% 30.32 in 10.0 mi SSW 15.0 mph - N/A   Scattered Clouds
1:51 AM 29.5 °F 18.4 °F 17.4 °F 61% 30.30 in 10.0 mi SSW 15.0 mph - N/A   Scattered Clouds
2:51 AM 29.5 °F 18.4 °F 17.4 °F 61% 30.30 in 10.0 mi SSW 15.0 mph - N/A   Scattered Clouds
3:51 AM 30.0 °F 19.1 °F 19.2 °F 64% 30.30 in 10.0 mi SSW 15.0 mph - N/A   Scattered Clouds
4:51 AM 30.0 °F 19.1 °F 19.2 °F 64% 30.30 in 10.0 mi SSW 15.0 mph - N/A   Scattered Clouds
5:51 AM 30.0 °F 19.1 °F 19.2 °F 64% 30.30 in 10.0 mi SSW 15.0 mph - N/A   Scattered Clouds
6:51 AM 28.2 °F 16.8 °F 19.2 °F 69% 30.31 in 10.0 mi SSW 15.0 mph - N/A   Scattered Clouds
7:51 AM 30.0 °F 21.1 °F 18.0 °F 61% 30.31 in 10.0 mi South 10.4 mph - N/A   Scattered Clouds
8:51 AM 31.1 °F 21.4 °F 18.0 °F 58% 30.31 in 10.0 mi SSW 12.7 mph - N/A   Mostly Cloudy
9:51 AM 32.0 °F 23.6 °F 18.0 °F 56% 30.30 in 10.0 mi SSW 10.4 mph - N/A   Mostly Cloudy
10:51 AM 36.0 °F 27.1 °F 22.1 °F 57% 30.29 in 10.0 mi SW 13.8 mph - N/A   Mostly Cloudy
11:51 AM 39.0 °F 30.3 °F 19.9 °F 46% 30.26 in 10.0 mi SW 16.1 mph - N/A   Mostly Cloudy
12:51 PM 42.1 °F 33.1 °F 24.1 °F 49% 30.23 in 10.0 mi SSW 20.7 mph - N/A   Mostly Cloudy
1:51 PM 44.1 °F 36.2 °F 23.0 °F 43% 30.19 in 10.0 mi SW 18.4 mph - N/A   Mostly Cloudy
2:51 PM 46.9 °F - 22.1 °F 38% 30.18 in 10.0 mi SW 18.4 mph - N/A   Mostly Cloudy
3:51 PM 46.9 °F - 22.1 °F 38% 30.17 in 10.0 mi SSW 18.4 mph - N/A   Mostly Cloudy
4:51 PM 46.0 °F 39.3 °F 22.1 °F 39% 30.17 in 10.0 mi SSW 16.1 mph - N/A   Mostly Cloudy
5:51 PM 44.1 °F 36.8 °F 19.9 °F 38% 30.17 in 10.0 mi SSW 16.1 mph - N/A   Mostly Cloudy
6:51 PM 43.0 °F 35.4 °F 19.9 °F 40% 30.16 in 10.0 mi SSW 16.1 mph - N/A   Scattered Clouds
7:51 PM 42.1 °F 34.2 °F 19.9 °F 41% 30.16 in 10.0 mi SSW 16.1 mph - N/A   Scattered Clouds
8:51 PM 41.0 °F 32.8 °F 19.9 °F 43% 30.16 in 10.0 mi SSW 16.1 mph - N/A   Scattered Clouds
9:51 PM 43.0 °F 35.4 °F 19.9 °F 40% 30.15 in 10.0 mi SSW 16.1 mph - N/A   Mostly Cloudy
10:51 PM 41.0 °F 32.8 °F 19.9 °F 43% 30.16 in 10.0 mi SSW 16.1 mph - N/A   Mostly Cloudy
11:51 PM 41.0 °F 34.3 °F 19.9 °F 43% 30.16 in 10.0 mi SSW 11.5 mph - N/A   Scattered Clouds